Wind_Speed
20 23 21 20 18 17 17 15 13 12 10 8 7 6 5 6 6 6 6 6 6 6 6 6 7 7 9 11 12 14 12 9
18 22 21 20 19 17 15 14 13 12 11 10 8 7 7 8 8 8 9 9 9 9 9 9 9 9 10 12 16 15 16 14
15 20 21 20 18 18 17 16 14 13 12 11 10 9 9 10 10 11 11 11 11 11 11 11 11 11 11 12 18 17 18 19
9 14 19 20 20 19 18 17 15 14 13 12 11 11 11 12 12 13 14 14 15 15 15 14 14 13 12 13 17 19 20 21
8 7 11 14 18 18 19 17 15 13 12 12 13 14 13 14 15 15 16 17 17 18 19 19 18 16 14 15 17 19 22 23
11 10 9 7 12 17 18 15 13 12 7 8 12 13 13 14 17 17 17 17 17 17 17 16 19 20 19 19 18 21 22 24
12 11 8 6 3 10 15 12 9 7 5 5 4 5 6 7 9 11 12 14 16 17 19 19 20 20 20 20 19 20 23 25
14 11 9 8 7 1 7 10 9 10 10 11 11 12 12 14 15 14 15 16 17 18 19 21 24 23 25 23 23 21 21 26
18 15 12 8 7 5 6 8 8 9 11 11 11 11 13 16 19 19 21 21 21 24 24 25 26 26 27 27 26 26 24 25
15 16 15 10 7 5 9 8 11 11 11 13 15 15 15 16 17 21 23 25 26 28 30 31 30 30 30 30 29 28 28 28
17 18 16 14 11 7 7 8 10 10 10 8 8 10 13 15 16 21 24 27 28 30 30 31 32 33 35 35 35 35 35 34
17 20 19 18 12 11 10 7 5 3 1 3 6 7 9 10 11 13 16 18 20 21 24 26 27 29 33 37 39 40 38 40
19 23 20 16 15 14 12 9 6 5 1 4 7 10 11 13 12 13 14 15 18 20 23 23 24 24 28 32 38 37 37 35
22 22 20 17 14 13 10 9 5 2 4 8 11 12 14 16 18 20 21 23 23 22 23 27 27 21 25 32 27 31 30 30
24 22 20 17 14 10 7 5 3 7 10 14 15 16 17 18 20 21 23 21 21 23 23 22 26 27 26 23 21 21 32 35
23 21 19 16 12 7 2 5 9 13 16 18 20 21 22 23 24 23 21 19 20 19 20 25 26 26 25 23 24 29 32 36
22 19 16 11 5 4 8 9 11 13 16 18 20 23 23 22 23 22 21 20 21 24 27 28 28 29 23 22 23 25 26 28
19 16 12 5 2 7 10 10 13 14 16 19 19 18 16 18 21 23 25 24 23 24 25 26 26 27 29 28 25 24 27 26
18 14 8 3 6 8 9 13 16 17 15 13 15 19 22 24 25 24 22 22 24 28 29 25 25 27 28 31 36 35 31 30
16 11 5 5 8 10 12 17 17 13 13 16 18 20 19 20 22 24 26 28 28 27 28 26 27 27 30 29 31 35 33 34
Wind_Direction
186 190 190 197 200 200 200 199 201 204 208 213 226 243 262 271 268 263 259 254 252 252 247 238 229 223 217 230 236 242 248 254
189 191 196 201 204 206 208 209 212 215 219 225 234 244 259 268 267 266 266 265 265 266 260 258 253 242 233 231 244 242 249 251
187 196 204 207 212 215 216 219 221 225 230 237 247 256 266 274 276 270 266 266 268 272 266 265 262 260 260 249 249 248 247 254
184 205 213 215 218 221 224 227 231 237 244 253 264 268 272 275 273 271 269 268 268 267 267 266 269 269 271 268 261 258 252 251
182 190 208 223 230 230 230 229 234 243 253 264 271 272 277 281 280 277 275 278 280 282 282 274 273 273 271 269 266 264 260 255
177 167 166 180 227 237 237 235 241 251 254 283 274 272 285 287 282 280 278 279 283 284 296 304 293 286 278 271 269 269 263 260
181 175 154 146 181 235 232 229 211 209 252 287 282 277 290 304 319 308 304 296 291 290 295 301 301 300 294 287 279 276 268 265
191 191 158 130 92 49 212 215 231 247 258 268 272 278 290 297 295 291 286 290 294 298 301 296 294 293 293 290 289 289 283 266
204 198 170 148 129 119 190 221 250 251 256 263 273 283 285 282 287 296 300 294 291 291 292 295 290 287 286 289 284 284 286 288
199 199 182 166 169 193 211 249 249 255 262 270 277 280 276 268 275 279 289 287 288 288 288 287 286 286 285 286 283 278 273 275
195 195 178 182 185 191 210 236 255 262 281 302 315 302 295 291 288 287 282 283 288 292 292 293 290 288 289 288 287 280 278 273
184 169 181 175 188 189 194 186 162 199 269 322 299 323 323 319 313 303 298 296 297 299 300 295 300 292 297 294 288 283 282 278
168 165 176 184 188 168 166 161 148 137 132 315 309 300 292 291 291 296 301 308 310 308 304 305 310 314 310 306 299 297 287 286
164 165 159 159 162 159 159 159 171 233 296 312 311 307 304 302 300 299 302 307 313 317 321 322 318 317 306 304 310 298 299 292
160 158 161 159 157 157 160 177 236 276 292 303 311 313 314 310 303 302 305 316 323 322 324 322 320 318 318 307 304 294 304 294
159 161 159 153 146 146 189 295 303 307 310 312 312 311 309 311 314 317 318 308 307 313 316 316 314 318 318 314 303 298 298 300
164 160 153 145 139 358 344 331 320 311 307 306 311 313 316 318 316 320 321 320 315 312 313 315 316 312 310 311 318 316 311 303
168 166 162 166 298 331 335 335 333 329 323 324 324 325 327 331 330 330 329 322 324 324 324 322 318 314 306 297 302 321 323 317
172 176 181 227 311 329 334 343 343 334 333 334 332 330 329 330 331 334 334 329 326 326 327 326 327 319 312 310 296 289 294 309
175 182 209 281 322 337 342 343 341 334 326 326 328 331 334 330 328 326 326 325 326 327 328 326 326 321 320 312 305 286 280 280
Height
1521 1524 1526 1529 1531 1533 1534 1536 1538 1539 1541 1542 1543 1544 1544 1545 1545 1546 1546 1546 1546 1546 1546 1546 1546 1546 1546 1544 1543 1543 1543 1544
1522 1524 1526 1529 1531 1533 1535 1536 1538 1539 1541 1542 1543 1544 1544 1544 1545 1545 1546 1546 1546 1546 1546 1546 1545 1545 1545 1544 1542 1543 1542 1542
1522 1524 1526 1529 1531 1533 1534 1536 1537 1539 1541 1541 1542 1544 1544 1545 1545 1545 1545 1545 1545 1545 1545 1545 1545 1545 1545 1545 1541 1542 1541 1540
1521 1524 1526 1528 1530 1532 1533 1535 1536 1538 1540 1541 1542 1543 1544 1544 1544 1544 1544 1543 1543 1542 1542 1542 1543 1543 1544 1543 1542 1541 1540 1539
1521 1523 1525 1528 1530 1531 1533 1535 1537 1538 1539 1539 1540 1541 1541 1542 1542 1542 1542 1543 1543 1542 1542 1541 1541 1541 1541 1541 1540 1539 1538 1538
1520 1522 1524 1526 1528 1530 1532 1534 1536 1537 1538 1538 1538 1539 1540 1540 1540 1540 1540 1540 1540 1540 1540 1539 1539 1539 1538 1537 1537 1536 1536 1536
1519 1521 1522 1524 1526 1528 1530 1533 1535 1536 1537 1538 1537 1538 1538 1538 1539 1539 1539 1539 1538 1538 1537 1537 1536 1536 1535 1535 1534 1534 1533 1533
1517 1519 1521 1523 1525 1527 1529 1532 1535 1536 1536 1537 1537 1537 1537 1537 1537 1537 1537 1537 1537 1536 1535 1535 1534 1533 1532 1532 1532 1532 1531 1530
1514 1517 1520 1522 1524 1527 1530 1532 1533 1534 1534 1535 1536 1535 1535 1535 1534 1534 1534 1534 1534 1534 1532 1531 1530 1529 1528 1527 1527 1527 1528 1528
1512 1515 1519 1521 1523 1526 1528 1530 1532 1532 1534 1533 1533 1532 1532 1532 1531 1531 1531 1531 1530 1530 1529 1527 1526 1525 1523 1522 1521 1520 1520 1521
1510 1513 1517 1520 1523 1525 1527 1529 1530 1531 1530 1530 1530 1530 1530 1529 1528 1528 1527 1526 1526 1525 1524 1523 1521 1519 1517 1516 1515 1513 1512 1512
1508 1511 1516 1519 1522 1524 1526 1528 1529 1529 1529 1529 1528 1527 1526 1525 1525 1524 1523 1522 1522 1521 1520 1519 1516 1513 1510 1507 1505 1504 1505 1502
1508 1511 1515 1518 1520 1522 1525 1526 1527 1528 1528 1527 1526 1525 1524 1523 1522 1521 1519 1518 1517 1516 1513 1512 1510 1509 1505 1501 1498 1497 1496 1495
1509 1511 1513 1516 1518 1520 1522 1523 1524 1525 1525 1525 1524 1523 1523 1522 1520 1519 1518 1515 1514 1513 1511 1508 1506 1506 1505 1501 1493 1492 1492 1491
1508 1511 1513 1514 1516 1518 1520 1521 1523 1523 1524 1523 1522 1520 1519 1518 1516 1514 1513 1511 1509 1507 1506 1504 1500 1501 1502 1502 1496 1491 1487 1485
1507 1510 1512 1514 1515 1517 1519 1520 1521 1521 1520 1520 1519 1518 1517 1515 1514 1512 1511 1509 1507 1505 1503 1501 1498 1495 1495 1494 1493 1491 1485 1477
1505 1509 1511 1513 1514 1516 1517 1518 1519 1518 1518 1517 1517 1516 1514 1512 1511 1509 1507 1505 1503 1502 1500 1497 1495 1494 1491 1487 1485 1483 1482 1478
1504 1507 1509 1511 1512 1513 1514 1515 1515 1515 1514 1514 1513 1513 1511 1510 1507 1505 1504 1501 1499 1496 1495 1493 1491 1488 1485 1483 1479 1479 1477 1474
1503 1505 1508 1510 1511 1511 1511 1512 1512 1512 1512 1511 1511 1510 1509 1506 1504 1502 1500 1498 1495 1493 1491 1488 1486 1481 1479 1477 1475 1471 1470 1471
1501 1505 1507 1508 1508 1509 1509 1509 1509 1509 1509 1508 1507 1506 1504 1502 1499 1497 1496 1494 1491 1488 1485 1483 1479 1476 1473 1471 1468 1464 1462 1462